{"data":{"norad_id":68090,"intl_designator":"2026-042X","name":"STARLINK-36320","alt_names":[],"object_type":"PAYLOAD","status":"ACTIVE","operator":null,"country":"US","launch_date":"2026-03-04","launch_site_code":"AFETR","launch_vehicle":null,"mission":null,"orbit_class":"UNKNOWN","rcs_meters":null,"size_class":null,"mass_kg":null,"dimensions":null,"purposes":["comms"],"wikipedia_slug":null,"has_3d_model":false,"image_url":null,"decayed_at":null,"tle_current":{"epoch":"2026-09-19T06:20:32.846784Z","epoch_age_seconds":162853,"freshness":"FRESH","line1":"1 68090U 26042X   26262.26426906  .00011891  00000+0  36241-3 0  9998","line2":"2 68090  53.1614 355.2345 0000937  68.5181 291.5922 15.34408236 32001","mean_motion":15.34408236,"eccentricity":9.37e-5,"inclination_deg":53.1614,"raan_deg":355.2345,"arg_perigee_deg":68.5181,"mean_anomaly_deg":291.5922,"bstar":0.00036241,"rev_number":3200,"period_min":93.847254349591,"perigee_km":462.03777675212,"apogee_km":463.31974562576,"semimajor_km":6840.8157611889,"source":"CELESTRAK","updated_at":"2026-09-20T09:00:43.782237Z"}}}